487  
ASUS43 KFSD 210110  
RWRFSD  
 
WEATHER ROUNDUP FOR SE SOUTH DAKOTA/SW MINNESOTA/NW IOWA  
NATIONAL WEATHER SERVICE SIOUX FALLS SD  
700 PM CST THU FEB 20 2020  
 
NOTE: "FAIR" INDICATES FEW OR NO CLOUDS BELOW 12,000 FEET WITH NO  
SIGNIFICANT WEATHER AND OR S TO VISIBILITY
.  
 
 
SDZ038>040-050-052>070-210200-  
SOUTHEAST SOUTH DAKOTA  
 
CITY SKY/WX TMP DP RH WIND PRES REMARKS
 
BROOKINGS CLEAR 17 14 88 S12 30.50F WCI 4  
CHAMBERLAIN CLEAR 30 26 83 SE7 30.43F WCI 23  
HURON CLEAR 24 18 77 MISG 30.48F  
MADISON FAIR 18 18 100 S12 30.51S WCI 5  
MITCHELL FAIR 26 17 68 S12 30.51F WCI 16  
SIOUX FALLS CLEAR 21 13 71 S13 30.55S WCI 9  
WINNER FAIR 36 19 50 S13 30.42F  
YANKTON CLEAR 21 15 78 SE7 30.57F WCI 12  

 
 
MNZ071-072-080-081-089-090-097-098-210200-  
SOUTHWEST MINNESOTA  
 
CITY SKY/WX TMP DP RH WIND PRES REMARKS
 
FAIRMONT CLEAR 14 6 70 S8 N/A WCI 3  
JACKSON CLEAR 12 7 79 SW13 30.57F WCI -3  
LUVERNE CLEAR 18 12 79 S8 30.58R WCI 7  
MARSHALL CLEAR 21 14 74 SW18 30.51F WCI 6  
MONTEVIDEO CLEAR 18 9 68 SW9 30.52F WCI 6  
PIPESTONE CLEAR 14 10 85 MISG 30.52S  
REDWOOD FALLS CLEAR 12 5 73 S8 30.55F WCI 0  
WINDOM CLEAR 12 7 79 S9 30.55F WCI 0  
WORTHINGTON CLEAR 15 9 76 SW20 30.55F WCI -2  

 
 
IAZ001>003-012>014-020>022-031-032-NEZ013-014-SDZ071-210200-  
NORTHWEST IOWA  
 
CITY SKY/WX TMP DP RH WIND PRES REMARKS
 
CHEROKEE CLEAR 10 5 78 S6 30.63S WCI 1  
DENISON CLEAR 21 16 79 S7 30.67S WCI 13  
ESTHERVILLE CLEAR 12 4 70 SW13 30.59F WCI -3  
LE MARS CLEAR 14 10 85 S7 30.62S WCI 4  
MAURICE FAIR 14 14 100 S13 30.59F WCI 0  
SHELDON CLEAR 14 9 79 S9 30.58S WCI 2  
SIOUX CITY CLEAR 12 8 84 SE8 30.64S WCI 0  
SPENCER CLEAR 15 5 64 SW10 30.61F WCI 2  
STORM LAKE CLEAR 9 3 78 SW12 30.58F WCI -6  

 
 
ABBREVIATIONS USED IN REMARKS  
TC - TEMPERATURE IN CELSIUS  
WCI - WIND CHILL INDEX  
HX - HEAT INDEX  
VSB - VISIBILITY  
 
 
 
CLICK HERE TO GO TO PREVIOUS BULLETINS.

The Nexlab SD Page
The Nexlab IA Page
The Nexlab MN Page
The Nexlab NE Page Main Text Page